WetterOnline ( https://www.wetteronline.de )

Wetter aktuell Eisenberg

Aktuelles Wetter: Kempten (705m)

6-stündlich | Neueste Meldungen
Ortszeit Temperatur Wetter
Do, 14.11. 13:00 5.1° C bewölkt
Do, 14.11. 7:00 -5.2° C bewölkt
Do, 14.11. 1:00 -2.7° C wolkenlos
Mi, 13.11. 19:00 -0.4° C bewölkt
Mi, 13.11. 13:00 3.2° C Sprühregen
Mi, 13.11. 7:00 0.6° C wolkig
Mi, 13.11. 1:00 2.2° C bedeckt
Di, 12.11. 19:00 1.5° C bedeckt
Ortszeit Temperatur Wetter
Do, 14.11. 18:10 1.1° C bedeckt
Do, 14.11. 18:00 1.0° C bedeckt
Do, 14.11. 17:50 1.0° C bedeckt
Do, 14.11. 17:40 1.4° C bedeckt
Do, 14.11. 17:30 1.2° C bedeckt
Do, 14.11. 17:20 1.2° C bedeckt
Do, 14.11. 17:00 1.9° C bedeckt
Do, 14.11. 16:30 2.8° C bedeckt
Do, 14.11. 16:00 3.7° C bedeckt
Do, 14.11. 15:30 4.5° C bedeckt
Do, 14.11. 15:00 4.5° C bedeckt
Ortszeit Relative Feuchte Sichtweite
Do, 14.11. 13:00 59% 30 km
Do, 14.11. 7:00 91% 45 km
Do, 14.11. 1:00 92% 22 km
Mi, 13.11. 19:00 94% 5.0 km
Mi, 13.11. 13:00 87% 13 km
Mi, 13.11. 7:00 96% 16 km
Mi, 13.11. 1:00 85% 50 km
Di, 12.11. 19:00 93% 14 km
Ortszeit Relative Feuchte Sichtweite
Do, 14.11. 18:10 88% -
Do, 14.11. 18:00 88% 17 km
Do, 14.11. 17:50 88% -
Do, 14.11. 17:40 88% -
Do, 14.11. 17:30 88% 20 km
Do, 14.11. 17:20 88% -
Do, 14.11. 17:00 87% 17 km
Do, 14.11. 16:30 82% 25 km
Do, 14.11. 16:00 78% 30 km
Do, 14.11. 15:30 70% 35 km
Do, 14.11. 15:00 68% 30 km
Ortszeit Niederschlagsmenge Niederschlagsart
Do, 14.11. 13:00 0.0 l/m2 in 6 Std. -
Do, 14.11. 7:00 0.1 l/m2 in 12 Std. -
Do, 14.11. 1:00 0.1 l/m2 in 6 Std. Regen
Mi, 13.11. 19:00 0.1 l/m2 in 12 Std. Regen
Mi, 13.11. 13:00 0.1 l/m2 in 6 Std. Regen
Mi, 13.11. 7:00 3 l/m2 in 12 Std. Schnee, Regen
Mi, 13.11. 1:00 0.1 l/m2 in 6 Std. Regen
Di, 12.11. 19:00 0.0 l/m2 in 12 Std. -
Ortszeit Niederschlagsmenge Niederschlagsart
Do, 14.11. 18:10 keine Meldung -
Do, 14.11. 18:00 0.0 l/m2 in 1 Std. -
Do, 14.11. 17:50 keine Meldung -
Do, 14.11. 17:40 keine Meldung -
Do, 14.11. 17:30 0.0 l/m2 in 1 Std. -
Do, 14.11. 17:20 keine Meldung -
Do, 14.11. 17:00 0.0 l/m2 in 1 Std. -
Do, 14.11. 16:30 0.0 l/m2 in 1 Std. -
Do, 14.11. 16:00 0.0 l/m2 in 1 Std. -
Do, 14.11. 15:30 0.0 l/m2 in 1 Std. -
Do, 14.11. 15:00 0.0 l/m2 in 1 Std. -
Ortszeit Stärke Spitze Richtung
km/h Bft. km/h Grad Sektor
Do, 14.11. 13:00 2 1 13 240° SW
Do, 14.11. 7:00 7 2 11 110° O
Do, 14.11. 1:00 4 1 14 110° O
Mi, 13.11. 19:00 4 1 25 120° SO
Mi, 13.11. 13:00 6 1 19 260° W
Mi, 13.11. 7:00 6 1 15 150° SO
Mi, 13.11. 1:00 7 2 14 110° O
Di, 12.11. 19:00 4 1 11 110° O
Ortszeit Stärke Spitze Richtung
km/h Bft. km/h Grad Sektor
Do, 14.11. 18:10 2 1 - 200° S
Do, 14.11. 18:00 4 1 11 80° O
Do, 14.11. 17:50 4 1 - 80° O
Do, 14.11. 17:40 2 1 - 60° NO
Do, 14.11. 17:30 4 1 7 110° O
Do, 14.11. 17:20 4 1 - 110° O
Do, 14.11. 17:00 7 2 9 100° O
Do, 14.11. 16:30 2 1 7 360° N
Do, 14.11. 16:00 4 1 7 60° NO
Do, 14.11. 15:30 0 0 7 - -
Do, 14.11. 15:00 2 1 6 300° NW
Ortszeit Untergrenze Bedeckung Gattung
total tief tief mittel hoch
Do, 14.11. 13:00 6300 m 7/8 6/8 - - -
Do, 14.11. 7:00 4800 m 7/8 7/8 - - -
Do, 14.11. 1:00 - 0/8 0/8 - - -
Mi, 13.11. 19:00 960 m 7/8 7/8 - - -
Mi, 13.11. 13:00 510 m 8/8 8/8 - - -
Mi, 13.11. 7:00 960 m 6/8 6/8 - - -
Mi, 13.11. 1:00 1500 m 8/8 8/8 - - -
Di, 12.11. 19:00 3000 m 8/8 8/8 - - -
Ortszeit Bedeckungsgrad in Achtel und Wolkenuntergrenze
Do, 14.11. 18:10 7(5400m) 8(6000m)
Do, 14.11. 18:00 6(4500m) 8(5100m)
Do, 14.11. 17:50 6(4500m) 8(5100m)
Do, 14.11. 17:40 6(4500m) 8(5100m)
Do, 14.11. 17:30 6(4500m) 8(5100m)
Do, 14.11. 17:20 6(4500m) 8(5100m)
Do, 14.11. 17:00 6(5100m) 8(5700m)
Do, 14.11. 16:30 8(6000m) 8(6300m)
Do, 14.11. 16:00 8(5400m) 8(6300m)
Do, 14.11. 15:30 8(4800m) 8(5400m)
Do, 14.11. 15:00 8(4200m)
Ortszeit Luftdruck NN (hPa) Tendenz (hPa in 3 Std.)
Do, 14.11. 13:00 1003 - 0,6
Do, 14.11. 7:00 1006 - 0,8
Do, 14.11. 1:00 1009 - 1,2
Mi, 13.11. 19:00 1009 + 0,7
Mi, 13.11. 13:00 1006 + 0,3
Mi, 13.11. 7:00 1005 - 0,2
Mi, 13.11. 1:00 1005 - 0,8
Di, 12.11. 19:00 1007 - 1,0
Ortszeit Luftdruck NN (hPa) Tendenz (hPa in 3 Std.)
Do, 14.11. 18:10 1002 keine Meldung
Do, 14.11. 18:00 1002 - 1,3
Do, 14.11. 17:50 1002 keine Meldung
Do, 14.11. 17:40 1002 keine Meldung
Do, 14.11. 17:30 1002 - 1,1
Do, 14.11. 17:20 1002 keine Meldung
Do, 14.11. 17:00 1002 - 1,4
Do, 14.11. 16:30 1002 - 1,8
Do, 14.11. 16:00 1002 - 1,4
Do, 14.11. 15:30 1002 - 1,2
Do, 14.11. 15:00 1002 - 1,4
Ortszeit Schneehöhe (cm)
Do, 14.11. 13:00 0
Do, 14.11. 7:00 0
Do, 14.11. 1:00 0
Mi, 13.11. 19:00 0
Mi, 13.11. 13:00 0
Mi, 13.11. 7:00 0
Mi, 13.11. 1:00 0
Di, 12.11. 19:00 0
Ortszeit Schneehöhe (cm)
Do, 14.11. 18:10 0
Do, 14.11. 18:00 0
Do, 14.11. 17:50 0
Do, 14.11. 17:40 0
Do, 14.11. 17:30 0
Do, 14.11. 17:20 0
Do, 14.11. 17:00 0
Do, 14.11. 16:30 0
Do, 14.11. 16:00 0
Do, 14.11. 15:30 0
Do, 14.11. 15:00 0
Link zu dieser Seite / Seite empfehlen

Das Wetter in ...